Regional Weather Roundup
Issued by NWS Jackson, KY

Home | Current Version | Previous Version | Text Only | Print | Product List | Glossary On
Versions: 1 2 3 4 5 6 7 8 9 10 11 12 13 14 15 16 17 18 19 20 21 22 23 24 25 26 27 28 29 30 31 32 33 34 35 36 37 38 39 40 41 42 43 44 45 46 47 48 49 50
000
ASUS43 KJKL 211010
RWRJKL

EAST KENTUCKY HOURLY WEATHER ROUNDUP
NATIONAL WEATHER SERVICE JACKSON KY
500 AM EST WED FEB 21 2018

NOTE: "FAIR" INDICATES FEW OR NO CLOUDS BELOW 12,000 FEET WITH
NO SIGNIFICANT WEATHER AND/OR OBSTRUCTIONS TO VISIBILITY.

* THESE REPORTS ARE NOT UNDER NWS QUALITY CONTROL AND MAY NOT
  REPORT WEATHER SUCH AS PRECIPITATION AND FOG.

KYZ079-080-083-085-087-088-110-112-115-119-120-211100
...EASTERN KENTUCKY...

CITY           SKY/WX    TMP DP  RH WIND       PRES   REMARKS
JACKSON          N/A     67  54  63 S6        30.23F
LONDON           N/A     66  57  72 S3        30.24S
SOMERSET*      MOCLDY    66  59  77 MISG      30.24S
WILLIAMSBURG*  PTSUNNY   68  59  73 S9        30.25R
MIDDLESBORO*   MOCLDY    66  59  76 S9        30.29S
HARLAN APT*    CLOUDY    66  54  63 CALM      30.29F
PIKE CO APT*     N/A     64  54  68 S8        30.26S
BIG SANDY APT*   N/A     66  53  63 S8        30.25S
MOREHEAD APT*    N/A     68  55  64 S14G23    30.20S
ASHLAND*         N/A     64  52  64 S3        30.19S
$$

KYZ035-036-041-042-044-050-067-078-099-211100
...CENTRAL KENTUCKY...

CITY           SKY/WX    TMP DP  RH WIND       PRES   REMARKS
MT STERLING*     N/A     68  59  73 SW13G25   30.20R
FLEMING/MASON*   N/A     67  58  74 SW13G20   30.18S
DANVILLE*        N/A     64  57  77 S9G16     30.19S
LEXINGTON        N/A     67  58  72 S16G25    30.16R
FRANKFORT        N/A     70  58  65 S15G30    30.13S
LOUISVILLE     HVY RAIN  61  58  90 NW15G25   30.17R FOG
LEBANON*         N/A     68  59  73 S20G30    30.16S
GLASGOW*       MOCLDY    70  61  73 S16G24    30.17R
BOWLING GREEN  CLOUDY    70  64  81 SW10G28   30.16R
$$

KYZ091>093-OHZ055-061-077-WVZ005-015-034-035-042-211100
...SOUTHERN OHIO/WEST VIRGINIA...

CITY           SKY/WX    TMP DP  RH WIND       PRES   REMARKS
COVINGTON      MOCLDY    66  60  81 S15       30.09S
COLUMBUS       MOCLDY    66  55  67 S12       30.11S
DAYTON         CLOUDY    66  60  81 SW18G28   30.10R
WILMINGTON       N/A     64  59  83 S16G25    30.10F
HUNTINGTON       N/A     66  50  56 S8        30.19F
CHARLESTON       N/A     67  52  58 S7        30.23S
BECKLEY          N/A     57  51  80 SE8       30.33F
BLUEFIELD        N/A     59  51  75 CALM      30.37R
LOGAN CO APT*    N/A     66  54  63 S9G16     30.27S
$$

VAZ002-007-008-TNZ017-027-036-066-071-211100
...SOUTHWEST VIRGINIA/EAST TENNESSEE...

CITY           SKY/WX    TMP DP  RH WIND       PRES   REMARKS
WISE*          MOCLDY    63  55  77 S12G17    30.34F
JONESVILLE*    CLOUDY    64  57  77 E3        30.33S
ABINGDON*      MOCLDY    55  52  89 CALM      30.35S
BRISTOL        MOCLDY    63  57  81 CALM      30.33R
MORRISTOWN*    CLOUDY    61  57  88 CALM      30.30F
SEVIERVILLE*   CLOUDY    61  57  88 N5        30.31R FOG
KNOXVILLE      RAIN      64  64 100 S14       30.30R FOG
LAFOLLETTE*    CLOUDY    70  61  73 S14       30.31S
OAK RIDGE      CLOUDY    67  62  84 VRB5      30.31S
CROSSVILLE     CLOUDY    64  59  83 S13G20    30.29S
NASHVILLE      MOCLDY    71  62  73 S20G30    30.19F
$$

...KEY TO REMARKS...
VSB - VISIBILITY IN MILES
WCI - WIND CHILL INDEX
HX  - HEAT INDEX

$$



USA.gov is the U.S. government's official web portal to all federal, state and local government web resources and services.